• In Austria
  • List of Countries
  • For 7 days
  • Water Temperature
  • Satellite Maps
  • Weather Map
  • News
  • Weather Widgets
  • user-avatar
    Login

    Hourly Weather Innsbruck

    Today, 16 December, Saturday

    Time Temperature Precipitation Wind Pressure Humidity
    00:00 -15°C° 0 mm 2 mps 579 mmHg 90%
    01:00 -16°C° 0 mm 2 mps 579 mmHg 90%
    02:00 -16°C° 0 mm 2 mps 579 mmHg 89%
    03:00 -16°C° 0 mm 2 mps 579 mmHg 89%
    04:00 -16°C° 0 mm 2 mps 579 mmHg 88%
    05:00 -16°C° 0 mm 2 mps 580 mmHg 88%
    06:00 -16°C° 0 mm 2 mps 580 mmHg 87%
    07:00 -16°C° 0 mm 2 mps 581 mmHg 86%
    08:00 -15°C° 0.1 mm 2 mps 582 mmHg 87%
    09:00 -13°C° 0.1 mm 2 mps 583 mmHg 87%
    10:00 -12°C° 0.1 mm 2 mps 584 mmHg 87%
    11:00 -10°C° 0.1 mm 2 mps 585 mmHg 87%
    12:00 -9°C° 0.1 mm 2 mps 585 mmHg 86%
    13:00 -8°C° 0.1 mm 2 mps 586 mmHg 86%
    14:00 -9°C° 0.2 mm 2 mps 586 mmHg 88%
    15:00 -9°C° 0.2 mm 2 mps 586 mmHg 90%
    16:00 -10°C° 0.2 mm 2 mps 586 mmHg 93%
    17:00 -10°C° 0.4 mm 2 mps 587 mmHg 93%
    18:00 -12°C° 0.4 mm 2 mps 587 mmHg 94%
    19:00 -12°C° 0.4 mm 2 mps 588 mmHg 94%
    20:00 -12°C° 0.5 mm 2 mps 588 mmHg 94%
    21:00 -12°C° 0.5 mm 2 mps 589 mmHg 95%
    22:00 -12°C° 0.5 mm 2 mps 589 mmHg 95%
    23:00 -12°C° 0.4 mm 2 mps 589 mmHg 95%

    Tomorrow, 17 December, Sunday

    Time Temperature Precipitation Wind Pressure Humidity
    00:00 -13°C° 0.4 mm 2 mps 589 mmHg 95%
    01:00 -13°C° 0.4 mm 2 mps 590 mmHg 95%
    02:00 -13°C° 0.3 mm 2 mps 590 mmHg 94%
    03:00 -13°C° 0.3 mm 2 mps 590 mmHg 94%
    04:00 -13°C° 0.3 mm 2 mps 590 mmHg 94%
    05:00 -13°C° 0.3 mm 2 mps 590 mmHg 94%
    06:00 -14°C° 0.3 mm 2 mps 590 mmHg 94%
    07:00 -14°C° 0.3 mm 2 mps 591 mmHg 94%
    08:00 -13°C° 0.3 mm 2 mps 591 mmHg 93%
    09:00 -13°C° 0.3 mm 2 mps 592 mmHg 93%
    10:00 -12°C° 0.3 mm 2 mps 592 mmHg 92%
    11:00 -12°C° 0.5 mm 2 mps 593 mmHg 91%
    12:00 -12°C° 0.5 mm 2 mps 593 mmHg 90%
    13:00 -10°C° 0.5 mm 2 mps 593 mmHg 89%
    14:00 -12°C° 0.5 mm 2 mps 593 mmHg 91%
    15:00 -12°C° 0.5 mm 2 mps 593 mmHg 92%
    16:00 -12°C° 0.5 mm 2 mps 593 mmHg 93%
    17:00 -13°C° 0.3 mm 2 mps 594 mmHg 93%
    18:00 -13°C° 0.3 mm 2 mps 594 mmHg 94%
    19:00 -14°C° 0.3 mm 2 mps 595 mmHg 94%
    20:00 -15°C° 0.2 mm 2 mps 595 mmHg 94%
    21:00 -15°C° 0.2 mm 2 mps 595 mmHg 94%
    22:00 -16°C° 0.2 mm 2 mps 595 mmHg 94%
    23:00 -16°C° 0 mm 2 mps 594 mmHg 93%

    Day after tomorrow, 18 December, Monday

    Time Temperature Precipitation Wind Pressure Humidity
    00:00 -17°C° 0 mm 2 mps 594 mmHg 92%
    01:00 -18°C° 0 mm 2 mps 594 mmHg 91%
    02:00 -18°C° 0 mm 2 mps 594 mmHg 90%
    03:00 -18°C° 0 mm 2 mps 593 mmHg 88%
    04:00 -18°C° 0 mm 2 mps 593 mmHg 87%
    05:00 -17°C° 0 mm 2 mps 593 mmHg 85%
    06:00 -16°C° 0 mm 2 mps 594 mmHg 83%
    07:00 -15°C° 0 mm 2 mps 594 mmHg 81%
    08:00 -14°C° 0.4 mm 2 mps 594 mmHg 85%
    09:00 -12°C° 0.4 mm 2 mps 594 mmHg 88%
    10:00 -10°C° 0.4 mm 2 mps 594 mmHg 91%
    11:00 -10°C° 1.3 mm 2 mps 594 mmHg 92%
    12:00 -9°C° 1.3 mm 2 mps 594 mmHg 93%
    13:00 -8°C° 1.3 mm 2 mps 594 mmHg 94%
    14:00 -8°C° 1 mm 2 mps 594 mmHg 95%
    15:00 -8°C° 1 mm 2 mps 594 mmHg 96%
    16:00 -8°C° 1 mm 2 mps 594 mmHg 96%
    17:00 -8°C° 0.7 mm 2 mps 594 mmHg 96%
    18:00 -9°C° 0.7 mm 2 mps 594 mmHg 96%
    19:00 -9°C° 0.7 mm 2 mps 595 mmHg 97%
    20:00 -10°C° 0.2 mm 2 mps 595 mmHg 96%
    21:00 -12°C° 0.2 mm 2 mps 596 mmHg 96%
    22:00 -12°C° 0.2 mm 2 mps 596 mmHg 96%
    23:00 -13°C° 0 mm 2 mps 596 mmHg 95%

    19 December, Tuesday

    Time Temperature Precipitation Wind Pressure Humidity
    00:00 -14°C° 0 mm 2 mps 596 mmHg 95%
    01:00 -15°C° 0 mm 2 mps 596 mmHg 94%
    02:00 -16°C° 0 mm 2 mps 596 mmHg 92%
    03:00 -16°C° 0 mm 2 mps 596 mmHg 91%
    04:00 -17°C° 0 mm 2 mps 596 mmHg 89%
    05:00 -17°C° 0 mm 2 mps 596 mmHg 88%
    06:00 -17°C° 0 mm 2 mps 596 mmHg 86%
    07:00 -17°C° 0 mm 2 mps 597 mmHg 85%
    08:00 -15°C° 0 mm 2 mps 598 mmHg 85%
    09:00 -14°C° 0 mm 2 mps 599 mmHg 84%
    10:00 -12°C° 0 mm 2 mps 600 mmHg 84%
    11:00 -10°C° 0 mm 2 mps 600 mmHg 84%
    12:00 -8°C° 0 mm 1 mps 601 mmHg 83%
    13:00 -6°C° 0 mm 1 mps 601 mmHg 83%
    14:00 -8°C° 0 mm 1 mps 600 mmHg 86%
    15:00 -9°C° 0 mm 1 mps 600 mmHg 90%
    16:00 -10°C° 0 mm 1 mps 599 mmHg 93%
    17:00 -11°C° 0 mm 1 mps 599 mmHg 91%
    18:00 -12°C° 0 mm 1 mps 599 mmHg 90%
    19:00 -13°C° 0 mm 1 mps 599 mmHg 88%
    20:00 -13°C° 0 mm 1 mps 599 mmHg 85%
    21:00 -13°C° 0 mm 1 mps 600 mmHg 83%
    22:00 -13°C° 0 mm 1 mps 600 mmHg 80%
    23:00 -15°C° 0 mm 2 mps 600 mmHg 79%

    20 December, Wednesday

    Time Temperature Precipitation Wind Pressure Humidity
    00:00 -14°C° 0 mm 2 mps 600 mmHg 77%
    01:00 -14°C° 0 mm 2 mps 600 mmHg 76%
    02:00 -13°C° 0.1 mm 2 mps 600 mmHg 78%
    03:00 -12°C° 0.1 mm 2 mps 601 mmHg 80%
    04:00 -10°C° 0.1 mm 2 mps 601 mmHg 82%
    05:00 -9°C° 0.4 mm 2 mps 601 mmHg 85%
    06:00 -9°C° 0.4 mm 2 mps 601 mmHg 88%
    07:00 -9°C° 0.4 mm 2 mps 601 mmHg 91%
    08:00 -8°C° 0.7 mm 2 mps 602 mmHg 92%
    09:00 -7°C° 0.7 mm 2 mps 602 mmHg 93%
    10:00 -7°C° 0.7 mm 2 mps 602 mmHg 94%
    11:00 -6°C° 0.6 mm 2 mps 602 mmHg 94%
    12:00 -6°C° 0.6 mm 3 mps 603 mmHg 94%
    13:00 -5°C° 0.6 mm 3 mps 603 mmHg 94%
    14:00 -4°C° 0.7 mm 2 mps 603 mmHg 95%
    15:00 -4°C° 0.7 mm 2 mps 603 mmHg 95%
    16:00 -5°C° 0.7 mm 2 mps 603 mmHg 95%
    17:00 -5°C° 0.8 mm 2 mps 603 mmHg 95%
    18:00 -5°C° 0.8 mm 2 mps 603 mmHg 95%
    19:00 -5°C° 0.8 mm 2 mps 603 mmHg 95%
    20:00 -5°C° 0.5 mm 2 mps 604 mmHg 95%
    21:00 -5°C° 0.5 mm 2 mps 604 mmHg 95%
    22:00 -5°C° 0.5 mm 2 mps 604 mmHg 95%
    23:00 -5°C° 0.4 mm 2 mps 604 mmHg 95%

    21 December, Thursday

    Time Temperature Precipitation Wind Pressure Humidity
    00:00 -5°C° 0.4 mm 2 mps 604 mmHg 95%
    01:00 -5°C° 0.4 mm 2 mps 604 mmHg 95%
    02:00 -5°C° 0.2 mm 2 mps 603 mmHg 95%
    03:00 -5°C° 0.2 mm 2 mps 603 mmHg 95%
    04:00 -5°C° 0.2 mm 2 mps 603 mmHg 95%
    05:00 -5°C° 0.3 mm 2 mps 603 mmHg 95%
    06:00 -5°C° 0.3 mm 2 mps 604 mmHg 95%
    07:00 -4°C° 0.3 mm 2 mps 604 mmHg 95%
    08:00 -4°C° 0.3 mm 2 mps 604 mmHg 95%
    09:00 -4°C° 0.3 mm 2 mps 604 mmHg 95%
    10:00 -3°C° 0.3 mm 2 mps 605 mmHg 95%
    11:00 -3°C° 0 mm 2 mps 604 mmHg 96%
    12:00 -2°C° 0 mm 2 mps 604 mmHg 97%
    13:00 -2°C° 0 mm 2 mps 604 mmHg 98%
    14:00 -2°C° 0 mm 2 mps 604 mmHg 97%
    15:00 -3°C° 0 mm 2 mps 603 mmHg 96%
    16:00 -1°C° 0 mm 1 mps 603 mmHg 95%
    17:00 -1°C° 0 mm 1 mps 603 mmHg 93%
    18:00 -2°C° 0 mm 1 mps 603 mmHg 91%
    19:00 -5°C° 0 mm 2 mps 602 mmHg 89%
    20:00 -3°C° 0 mm 1 mps 602 mmHg 89%
    21:00 -3°C° 0 mm 1 mps 602 mmHg 89%
    22:00 -3°C° 0 mm 1 mps 601 mmHg 88%
    23:00 -3°C° 0 mm 1 mps 601 mmHg 88%
    Show more